Home   Weather   Aschaffenburg   Past weeks

Flag for Germany Past Weather in Aschaffenburg, Bavaria, Germany — Yesterday and Last 2 Weeks

Now
25 °F

Passing clouds.


Feels Like: 20 °F
Forecast: 16 / 27 °F
Wind: 3 mph from Northeast

Location: Frankfurt-M-Flughafen Airport

Current Time: Jan 16, 2017 at 8:38:14 pm

Latest Report: Jan 16, 2017 at 7:50 pm


Visibility: N/A

Pressure: 30.36 "Hg

Humidity: 80%

Dew Point: 19 °F

Location of AschaffenburgLocation

Past Weather in Aschaffenburg — Graph

°F

Aschaffenburg Temperature Yesterday

Maximum temperature yesterday: 37 °F (at 11:20 am)
Minimum temperature yesterday: 27 °F (at 11:50 pm)
Average temperature yesterday: 34 °F

High & Low Weather Summary for the Past Weeks

 TemperatureHumidityPressure
High43 °F (Jan 12, 12:50 pm)100% (Jan 2, 7:20 am)30.77 "Hg (Jan 2, 7:20 am)
Low12 °F (Jan 7, 1:50 am)50% (Jan 6, 3:20 pm)29.15 "Hg (Jan 13, 12:50 am)
Average32 °F84%30.12 "Hg
* Reported Jan 1 7:20 pm — Jan 16 7:20 pm, Aschaffenburg, Weather by CustomWeather, © 2017

Note: Actual official high and low records may vary slightly from our data, if they occured in-between our weather recording intervals... More about our weather records

Advertising

Aschaffenburg Weather History for the Previous 24 Hours

Scroll right to see more
 ConditionsComfort  
Time TempWeatherWind HumidityBarometerVisibility
7:20 pm
Mon, Jan 16
27 °FClear.5 mph74%30.36 "Hg10 mi
6:50 pm27 °FClear.6 mph74%30.36 "Hg10 mi
6:20 pm27 °FPassing clouds.6 mph74%30.36 "HgN/A
5:50 pm27 °FPassing clouds.7 mph74%30.33 "HgN/A
5:20 pm28 °FPassing clouds.9 mph74%30.33 "HgN/A
4:50 pm30 °FPassing clouds.12 mph69%30.33 "HgN/A
4:20 pm32 °FPassing clouds.10 mph64%30.30 "HgN/A
3:50 pm32 °FPassing clouds.9 mph64%30.30 "HgN/A
3:20 pm32 °FPassing clouds.10 mph64%30.30 "HgN/A
2:50 pm32 °FPassing clouds.10 mph64%30.30 "HgN/A
2:20 pm32 °FPassing clouds.10 mph64%30.27 "HgN/A
1:50 pm32 °FScattered clouds.12 mph64%30.27 "HgN/A
1:20 pm32 °FScattered clouds.13 mph69%30.27 "HgN/A
12:50 pm32 °FPassing clouds.14 mph69%30.27 "HgN/A
12:20 pm34 °FScattered clouds.13 mph65%30.27 "HgN/A
11:50 am32 °FPassing clouds.8 mph75%30.27 "HgN/A
11:20 am32 °FPassing clouds.6 mph75%30.30 "HgN/A
10:50 am30 °FPassing clouds.9 mph80%30.27 "HgN/A
10:20 am28 °FPassing clouds.9 mph86%30.27 "HgN/A
9:50 am28 °FScattered clouds.10 mph86%30.27 "HgN/A
9:20 am28 °FPartly sunny.6 mph86%30.27 "HgN/A
8:50 am25 °FScattered clouds.6 mph93%30.24 "HgN/A
8:20 am23 °FPassing clouds.3 mph93%30.24 "HgN/A
7:50 am25 °FPassing clouds.5 mph93%30.24 "HgN/A
7:20 am27 °FPassing clouds.2 mph86%30.24 "HgN/A
6:50 am25 °FPassing clouds.2 mph93%30.21 "HgN/A
6:20 am28 °FPassing clouds.3 mph86%30.21 "HgN/A
5:50 am28 °FClear.2 mph86%30.21 "Hg10 mi
5:20 am27 °FClear.1 mph93%30.21 "Hg10 mi
4:50 am25 °FClear.1 mph93%30.21 "Hg10 mi
4:20 am25 °FClear.3 mph93%30.18 "Hg10 mi
3:50 am25 °FClear.1 mph93%30.18 "Hg10 mi
3:20 am23 °FFog.3 mph100%30.18 "HgN/A
2:50 am25 °FFog.2 mph93%30.18 "HgN/A
2:20 am25 °FPassing clouds.3 mph100%30.18 "HgN/A
1:50 am25 °FPassing clouds.3 mph93%30.18 "HgN/A
1:20 am25 °FPassing clouds.3 mph93%30.18 "HgN/A
12:50 am27 °FFog.1 mph93%30.18 "HgN/A
12:20 am27 °FFog.3 mph93%30.18 "HgN/A
11:50 pm
Sun, Jan 15
27 °FClear.3 mph100%30.18 "Hg10 mi
11:20 pm28 °FClear.3 mph93%30.18 "Hg10 mi
10:50 pm28 °FClear.3 mph93%30.18 "Hg10 mi
10:20 pm30 °FPassing clouds.2 mph93%30.18 "HgN/A
9:50 pm28 °FPassing clouds.3 mph93%30.18 "HgN/A
9:20 pm30 °FPassing clouds.3 mph93%30.15 "HgN/A
8:50 pm32 °FPassing clouds.6 mph80%30.15 "HgN/A
8:20 pm34 °FPassing clouds.7 mph75%30.15 "HgN/A
Weather by CustomWeather, © 2017

See weather overviewHow to use our weather pages